Retour au catalogue

COSMOS 1275 DEB

ActifPO
NORAD 14364·DEBRIS·🇷🇺 Russia

Lancé Jun 4, 1981 depuis Plesetsk Cosmodrome

Loading…

Prochains Passages (prochaines 24 heures)

TLE

FraisSource: Space-Track

Époque: Sep 14, 2026, 06:57 UTC

1 14364U 81053HX  26257.28979411  .00002245  00000-0  93484-3 0  9992
2 14364  82.7787 201.0936 0027358 326.6543  33.2917 14.25774848240308

Suivez COSMOS 1275 DEB en temps réel avec AllMySat

Download on the App Store